GW4460 Weather Reports


time (UTC)temp
F
wind
direction
speed
knots
gust
knots
rain 1hr
in
rain 24hr
in
rain mn
in
humidity
%
barometer
mb
20260906213428 103 85 3.5 4.3 0.00 0.00 0.00 29 1012.2
20260906212926 103 48 0.0 4.3 0.00 0.00 0.00 29 1012.1
20260906212421 103 45 3.5 7.0 0.00 0.00 0.00 29 1012.3
20260906211921 103 78 2.6 6.1 0.00 0.00 0.00 29 1012.3
20260906211416 103 62 6.1 8.7 0.00 0.00 0.00 29 1012.4
20260906210910 103 30 0.9 7.0 0.00 0.00 0.00 29 1012.4
20260906210407 104 115 3.5 4.3 0.00 0.00 0.00 29 1012.7
20260906205901 104 224 0.0 5.2 0.00 0.00 0.00 29 1012.8
20260906205357 103 359 0.0 5.2 0.00 0.00 0.00 30 1012.7
20260906204853 103 224 0.0 7.8 0.00 0.00 0.00 29 1013.1
20260906204351 104 108 4.3 9.6 0.00 0.00 0.00 29 1012.9
20260906203851 104 200 0.0 4.3 0.00 0.00 0.00 29 1013.3
20260906203347 104 248 3.5 3.5 0.00 0.00 0.00 29 1013.1
20260906202844 105 149 1.7 6.1 0.00 0.00 0.00 29 1013.0
20260906202343 105 25 3.5 5.2 0.00 0.00 0.00 29 1013.2
20260906201843 105 244 0.9 7.8 0.00 0.00 0.00 29 1013.4
20260906201338 104 195 3.5 7.8 0.00 0.00 0.00 29 1013.2
20260906200834 104 41 2.6 6.1 0.00 0.00 0.00 30 1013.4
20260906200330 105 112 1.7 3.5 0.00 0.00 0.00 29 1013.4
20260906195830 105 186 4.3 7.8 0.00 0.00 0.00 29 1013.5
20260906195326 104 266 1.7 3.5 0.00 0.00 0.00 30 1013.4
20260906194823 104 207 0.9 4.3 0.00 0.00 0.00 31 1013.6
20260906194318 104 159 0.9 4.3 0.00 0.00 0.00 32 1013.8
20260906193813 104 48 1.7 6.1 0.00 0.00 0.00 31 1013.9
20260906193308 103 21 1.7 5.2 0.00 0.00 0.00 32 1013.8
20260906192804 103 87 2.6 5.2 0.00 0.00 0.00 32 1013.9
20260906192306 104 191 3.5 8.7 0.00 0.00 0.00 31 1014.0
20260906191802 104 92 0.9 6.1 0.00 0.00 0.00 31 1014.0
20260906191258 103 359 1.7 5.2 0.00 0.00 0.00 32 1014.0
20260906190757 103 46 1.7 4.3 0.00 0.00 0.00 33 1014.1
20260906190251 102 31 4.3 4.3 0.00 0.00 0.00 34 1014.2
20260906185751 102 73 3.5 6.1 0.00 0.00 0.00 34 1014.2
20260906185250 101 71 1.7 4.3 0.00 0.00 0.00 33 1014.3
20260906184745 102 135 2.6 5.2 0.00 0.00 0.00 33 1014.7
20260906184240 103 173 0.9 5.2 0.00 0.00 0.00 33 1014.3
20260906183735 102 226 1.7 5.2 0.00 0.00 0.00 34 1014.5
20260906183232 103 191 1.7 7.8 0.00 0.00 0.00 33 1014.5
20260906182731 102 242 0.9 3.5 0.00 0.00 0.00 33 1014.8
20260906182228 101 72 0.9 4.3 0.00 0.00 0.00 35 1014.8
20260906181722 101 20 1.7 4.3 0.00 0.00 0.00 34 1015.1
20260906181219 101 37 3.5 4.3 0.00 0.00 0.00 34 1015.0
20260906180719 102 226 3.5 7.0 0.00 0.00 0.00 34 1015.1
20260906180214 101 237 1.7 6.1 0.00 0.00 0.00 35 1015.1
20260906175712 101 180 2.6 6.1 0.00 0.00 0.00 35 1015.3
20260906175208 100 100 3.5 7.0 0.00 0.00 0.00 36 1015.5
20260906174706 100 231 0.9 4.3 0.00 0.00 0.00 36 1015.5
20260906174200 100 97 5.2 6.1 0.00 0.00 0.00 36 1015.4
20260906173656 99 175 1.7 3.5 0.00 0.00 0.00 37 1015.5
20260906173151 99 87 2.6 9.6 0.00 0.00 0.00 37 1015.5
20260906172651 101 110 6.1 6.1 0.00 0.00 0.00 36 1015.6
20260906172146 100 235 1.7 2.6 0.00 0.00 0.00 37 1015.9
20260906171646 100 101 4.3 5.2 0.00 0.00 0.00 37 1015.8
20260906171141 100 216 1.7 4.3 0.00 0.00 0.00 37 1015.8
20260906170638 100 109 2.6 2.6 0.00 0.00 0.00 37 1015.9
20260906170137 99 190 1.7 6.1 0.00 0.00 0.00 38 1016.0
20260906165633 101 84 5.2 6.1 0.00 0.00 0.00 36 1016.1
20260906165128 100 85 1.7 2.6 0.00 0.00 0.00 37 1016.0
20260906164627 100 224 2.6 3.5 0.00 0.00 0.00 37 1016.3
20260906164123 99 15 2.6 3.5 0.00 0.00 0.00 37 1016.2
20260906163619 99 195 1.7 2.6 0.00 0.00 0.00 37 1016.1
20260906163115 98 147 0.9 5.2 0.00 0.00 0.00 39 1016.2
20260906162612 98 167 0.9 3.5 0.00 0.00 0.00 39 1016.1
20260906162107 98 67 1.7 3.5 0.00 0.00 0.00 38 1016.1
20260906161606 98 31 0.9 4.3 0.00 0.00 0.00 40 1016.0
20260906161105 98 269 0.0 3.5 0.00 0.00 0.00 40 1016.1
20260906160604 98 16 1.7 1.7 0.00 0.00 0.00 41 1016.0
20260906160103 97 101 2.6 3.5 0.00 0.00 0.00 41 1016.1
20260906155601 94 228 0.9 4.3 0.00 0.00 0.00 44 1016.0
20260906155057 96 234 1.7 2.6 0.00 0.00 0.00 42 1015.8
20260906154552 96 218 2.6 2.6 0.00 0.00 0.00 42 1015.9
20260906154051 96 224 2.6 3.5 0.00 0.00 0.00 41 1016.0
20260906153549 95 214 1.7 2.6 0.00 0.00 0.00 43 1016.0
20260906153045 95 238 2.6 2.6 0.00 0.00 0.00 43 1016.1
20260906152545 93 197 0.0 2.6 0.00 0.00 0.00 46 1016.1
20260906152044 92 230 2.6 3.5 0.00 0.00 0.00 47 1016.0
20260906151540 94 223 2.6 4.3 0.00 0.00 0.00 44 1016.0
20260906151036 93 73 0.0 1.7 0.00 0.00 0.00 45 1016.1
20260906150531 91 246 0.9 1.7 0.00 0.00 0.00 48 1016.1
20260906150026 91 232 1.7 3.5 0.00 0.00 0.00 48 1015.8
20260906145525 92 273 1.7 3.5 0.00 0.00 0.00 47 1016.0
20260906145020 91 98 1.7 1.7 0.00 0.00 0.00 48 1015.8
20260906144514 91 57 0.9 2.6 0.00 0.00 0.00 48 1015.8
20260906144009 90 243 1.7 3.5 0.00 0.00 0.00 50 1016.0
20260906143505 91 229 2.6 2.6 0.00 0.00 0.00 48 1016.0
20260906143001 91 227 1.7 1.7 0.00 0.00 0.00 48 1015.9
20260906142500 90 331 0.0 1.7 0.00 0.00 0.00 50 1016.0
20260906141955 90 230 0.0 1.7 0.00 0.00 0.00 50 1015.9
20260906141454 90 128 0.0 0.9 0.00 0.00 0.00 50 1015.9
20260906140950 89 162 0.0 0.9 0.00 0.00 0.00 51 1015.9
20260906140444 87 44 0.0 0.9 0.00 0.00 0.00 53 1015.9
20260906135943 86 146 0.0 2.6 0.00 0.00 0.00 54 1015.8
20260906135441 86 0 1.7 1.7 0.00 0.00 0.00 55 1015.8
20260906134937 85 53 1.7 3.5 0.00 0.00 0.00 56 1015.8
20260906134433 84 107 1.7 2.6 0.00 0.00 0.00 57 1015.6
20260906133933 83 43 1.7 1.7 0.00 0.00 0.00 59 1015.5
20260906133429 83 69 0.9 2.6 0.00 0.00 0.00 58 1015.7
20260906132924 82 110 0.0 1.7 0.00 0.00 0.00 60 1015.6
20260906132419 80 220 0.9 2.6 0.00 0.00 0.00 63 1015.8
20260906131915 80 52 1.7 2.6 0.00 0.00 0.00 63 1015.6
20260906131410 80 62 0.0 1.7 0.00 0.00 0.00 64 1015.6
20260906130906 79 70 1.7 1.7 0.00 0.00 0.00 64 1015.6
20260906130405 78 122 1.7 1.7 0.00 0.00 0.00 65 1015.5
20260906125904 78 128 1.7 1.7 0.00 0.00 0.00 66 1015.5
20260906125401 78 130 0.0 1.7 0.00 0.00 0.00 66 1015.4
20260906124856 77 108 1.7 1.7 0.00 0.00 0.00 67 1015.4
20260906124352 76 136 0.9 1.7 0.00 0.00 0.00 68 1015.4
20260906123851 76 121 0.0 0.9 0.00 0.00 0.00 68 1015.4
20260906123346 76 142 0.0 0.0 0.00 0.00 0.00 68 1015.3
20260906122846 76 142 0.0 0.0 0.00 0.00 0.00 69 1015.1
20260906122341 75 129 0.0 0.0 0.00 0.00 0.00 69 1015.2
20260906121838 75 50 0.0 0.0 0.00 0.00 0.00 69 1015.3
20260906121333 75 145 0.0 0.9 0.00 0.00 0.00 68 1015.1
20260906120830 76 269 0.0 0.0 0.00 0.00 0.00 68 1015.1
20260906120325 76 269 0.0 0.0 0.00 0.00 0.00 67 1014.9
20260906115821 76 329 0.0 0.9 0.00 0.00 0.00 67 1014.9
20260906115316 76 59 0.0 0.0 0.00 0.00 0.00 67 1014.9
20260906114816 76 44 0.0 0.0 0.00 0.00 0.00 67 1014.8
20260906114311 76 117 0.0 0.0 0.00 0.00 0.00 67 1014.7
20260906113806 77 89 0.0 0.0 0.00 0.00 0.00 66 1014.8
20260906113305 77 141 0.0 1.7 0.00 0.00 0.00 66 1014.5
20260906112801 77 114 1.7 1.7 0.00 0.00 0.00 66 1014.7
20260906112256 77 119 0.9 1.7 0.00 0.00 0.00 65 1014.4
20260906111756 77 139 0.0 0.9 0.00 0.00 0.00 65 1014.5
20260906111255 77 37 0.0 0.0 0.00 0.00 0.00 65 1014.2
20260906110751 77 113 0.0 0.9 0.00 0.00 0.00 65 1014.2
20260906110247 77 46 0.0 0.9 0.00 0.00 0.00 65 1014.2
20260906105745 77 89 0.9 1.7 0.00 0.00 0.00 64 1014.0
20260906105241 77 89 0.0 1.7 0.00 0.00 0.00 64 1014.1
20260906104737 77 117 0.0 0.0 0.00 0.00 0.00 64 1013.8
20260906104235 77 113 0.0 0.9 0.00 0.00 0.00 64 1014.0
20260906103733 77 111 1.7 1.7 0.00 0.00 0.00 64 1014.0
20260906103228 77 75 0.0 0.9 0.00 0.00 0.00 64 1014.1
20260906102724 77 230 0.0 0.0 0.00 0.00 0.00 64 1014.1
20260906102223 77 154 0.0 0.0 0.00 0.00 0.00 64 1014.2
20260906101718 77 135 0.0 1.7 0.00 0.00 0.00 64 1014.1
20260906101213 77 224 0.0 0.0 0.00 0.00 0.00 64 1014.2
20260906100708 77 205 0.0 0.0 0.00 0.00 0.00 63 1014.0
20260906100208 77 106 0.0 0.9 0.00 0.00 0.00 63 1013.9
20260906095703 78 117 0.0 0.9 0.00 0.00 0.00 62 1014.0
20260906095159 78 62 0.0 0.9 0.00 0.00 0.00 62 1014.0
20260906094657 78 72 0.9 1.7 0.00 0.00 0.00 62 1013.9
20260906094153 78 135 0.0 0.9 0.00 0.00 0.00 61 1013.9
20260906093649 79 304 0.0 0.9 0.00 0.00 0.00 61 1013.8
20260906093149 79 297 0.0 0.0 0.00 0.00 0.00 60 1013.9
20260906092645 80 309 0.0 0.9 0.00 0.00 0.00 60 1013.8
20260906092144 80 230 0.0 0.0 0.00 0.00 0.00 59 1014.0
20260906091641 80 164 0.0 0.0 0.00 0.00 0.00 59 1013.8
20260906091137 80 200 0.0 0.9 0.00 0.00 0.00 58 1013.8
20260906090633 81 124 0.0 1.7 0.00 0.00 0.00 57 1013.7
20260906090132 81 104 0.0 0.0 0.00 0.00 0.00 57 1013.9
20260906085631 81 173 0.0 0.9 0.00 0.00 0.00 57 1014.0
20260906085132 81 240 0.0 0.9 0.00 0.00 0.00 57 1013.8
20260906084632 81 145 0.9 1.7 0.00 0.00 0.00 57 1013.7
20260906084130 81 215 0.0 0.9 0.00 0.00 0.00 57 1013.7
20260906083627 81 205 0.0 0.9 0.00 0.00 0.00 57 1013.8
20260906083127 81 224 0.0 0.9 0.00 0.00 0.00 56 1013.8
20260906082622 82 242 0.0 0.9 0.00 0.00 0.00 56 1013.8
20260906082117 82 187 0.0 1.7 0.00 0.00 0.00 56 1013.6
20260906081613 82 235 0.0 0.9 0.00 0.00 0.00 55 1013.5
20260906081108 82 236 0.0 0.9 0.00 0.00 0.00 55 1013.6
20260906080605 82 238 0.0 1.7 0.00 0.00 0.00 54 1013.5
20260906075601 83 152 0.9 1.7 0.00 0.00 0.00 53 1013.7
20260906075055 83 217 0.0 0.9 0.00 0.00 0.00 53 1013.8
20260906074551 83 172 0.9 2.6 0.00 0.00 0.00 53 1013.7
20260906074049 83 97 1.7 1.7 0.00 0.00 0.00 52 1013.9
20260906073544 83 234 0.9 0.9 0.00 0.00 0.00 52 1013.9
20260906073041 83 144 0.9 1.7 0.00 0.00 0.00 52 1013.9
20260906072541 83 185 0.0 1.7 0.00 0.00 0.00 52 1013.8
20260906072037 84 101 0.0 1.7 0.00 0.00 0.00 52 1013.8
20260906071533 84 202 0.9 1.7 0.00 0.00 0.00 51 1013.8
20260906071028 84 175 0.9 1.7 0.00 0.00 0.00 51 1013.7
20260906070524 84 180 0.9 2.6 0.00 0.00 0.00 51 1013.5
20260906070019 84 200 0.9 1.7 0.00 0.00 0.00 51 1013.6
20260906065519 84 212 0.0 1.7 0.00 0.00 0.00 51 1013.5
20260906065015 84 180 0.9 2.6 0.00 0.00 0.00 50 1013.7
20260906064511 84 176 0.9 2.6 0.00 0.00 0.00 50 1013.5
20260906064011 85 75 0.0 1.7 0.00 0.00 0.00 50 1013.5
20260906063506 85 187 0.9 1.7 0.00 0.00 0.00 50 1013.4
20260906063001 85 256 0.0 1.7 0.00 0.00 0.00 49 1013.4
20260906062456 85 97 0.0 1.7 0.00 0.00 0.00 49 1013.6
20260906061951 85 297 0.0 1.7 0.00 0.00 0.00 49 1013.7
20260906061442 86 217 1.7 1.7 0.00 0.00 0.00 48 1013.5
20260906060941 86 196 2.6 2.6 0.00 0.00 0.00 48 1013.4
20260906060438 86 256 0.0 1.7 0.00 0.00 0.00 48 1013.7
20260906055935 86 164 2.6 2.6 0.00 0.00 0.00 48 1013.8
20260906055430 86 146 1.7 2.6 0.00 0.00 0.00 48 1013.5
20260906054926 86 146 1.7 2.6 0.00 0.00 0.00 48 1013.7
20260906054420 86 206 0.0 1.7 0.00 0.00 0.00 48 1013.6
20260906053916 86 136 1.7 2.6 0.00 0.00 0.00 48 1013.6
20260906053412 86 56 0.9 1.7 0.00 0.00 0.00 48 1013.7
20260906052908 86 181 1.7 2.6 0.00 0.00 0.00 48 1013.7
20260906052403 86 44 0.0 1.7 0.00 0.00 0.00 48 1013.6
20260906051900 86 205 0.0 1.7 0.00 0.00 0.00 48 1013.8
20260906051400 86 28 0.0 1.7 0.00 0.00 0.00 48 1013.9
20260906050856 86 166 1.7 3.5 0.00 0.00 0.00 48 1013.7
20260906050351 86 309 0.0 2.6 0.00 0.00 0.00 48 1013.5
20260906045850 87 297 0.0 0.9 0.00 0.00 0.00 48 1013.7
20260906045349 87 179 2.6 2.6 0.00 0.00 0.00 48 1013.5
20260906044846 87 165 0.0 2.6 0.00 0.00 0.00 47 1013.7
20260906044345 87 158 0.0 1.7 0.00 0.00 0.00 47 1013.9
20260906043841 87 209 1.7 2.6 0.00 0.00 0.00 47 1013.6
20260906043337 87 151 0.9 3.5 0.00 0.00 0.00 47 1013.8
20260906042832 88 153 1.7 2.6 0.00 0.00 0.00 46 1013.8
20260906042331 88 123 0.9 2.6 0.00 0.00 0.00 46 1014.0
20260906041826 88 162 0.9 1.7 0.00 0.00 0.00 46 1014.1
20260906041322 88 38 0.9 1.7 0.00 0.00 0.00 45 1013.9
20260906040817 88 130 0.0 3.5 0.00 0.00 0.00 45 1013.9
20260906040312 89 46 0.9 3.5 0.00 0.00 0.00 45 1013.9
20260906035813 89 351 0.0 2.6 0.00 0.00 0.00 45 1014.0
20260906035308 89 191 0.9 2.6 0.00 0.00 0.00 45 1014.0
20260906034804 89 231 0.9 3.5 0.00 0.00 0.00 44 1013.7
20260906034303 89 164 0.0 1.7 0.00 0.00 0.00 44 1014.0
20260906033759 90 140 1.7 1.7 0.00 0.00 0.00 44 1014.2
20260906033258 90 166 0.0 3.5 0.00 0.00 0.00 43 1014.0
20260906032755 90 59 0.0 3.5 0.00 0.00 0.00 43 1013.9
20260906032255 90 171 0.0 3.5 0.00 0.00 0.00 43 1013.9
20260906031750 90 84 1.7 2.6 0.00 0.00 0.00 43 1013.8
20260906031247 91 46 0.0 3.5 0.00 0.00 0.00 42 1013.6
20260906030746 91 37 0.0 2.6 0.00 0.00 0.00 42 1013.7
20260906030241 91 53 2.6 2.6 0.00 0.00 0.00 42 1013.5
20260906025741 91 85 1.7 2.6 0.00 0.00 0.00 42 1013.7
20260906025235 91 84 1.7 3.5 0.00 0.00 0.00 41 1013.5
20260906024734 92 184 1.7 3.5 0.00 0.00 0.00 41 1013.4
20260906024233 92 95 2.6 5.2 0.00 0.00 0.00 41 1013.5
20260906023729 92 95 0.9 3.5 0.00 0.00 0.00 41 1013.4
20260906023225 92 77 1.7 4.3 0.00 0.00 0.00 40 1012.9
20260906022720 92 78 1.7 4.3 0.00 0.00 0.00 40 1013.2
20260906022215 93 30 1.7 3.5 0.00 0.00 0.00 40 1012.8
20260906021711 93 107 1.7 4.3 0.00 0.00 0.00 39 1012.9
20260906021210 93 78 1.7 4.3 0.00 0.00 0.00 39 1013.0
20260906020705 93 119 0.0 3.5 0.00 0.00 0.00 39 1012.8
20260906020200 93 131 1.7 4.3 0.00 0.00 0.00 39 1012.8
20260906015700 93 1 0.9 2.6 0.00 0.00 0.00 38 1012.5
20260906015158 94 79 0.9 1.7 0.00 0.00 0.00 38 1012.8
20260906014658 94 117 1.7 3.5 0.00 0.00 0.00 38 1012.6
20260906014154 94 40 3.5 5.2 0.00 0.00 0.00 38 1012.5
20260906013650 95 160 1.7 7.0 0.00 0.00 0.00 37 1012.5
20260906013145 95 95 1.7 7.8 0.00 0.00 0.00 37 1012.4
20260906012645 95 79 3.5 5.2 0.00 0.00 0.00 37 1012.1
20260906012145 95 114 1.7 4.3 0.00 0.00 0.00 36 1012.2
20260906011641 95 145 2.6 4.3 0.00 0.00 0.00 36 1012.0
20260906011136 96 92 1.7 5.2 0.00 0.00 0.00 36 1012.0
20260906010631 96 114 3.5 5.2 0.00 0.00 0.00 35 1011.8
20260906010128 96 69 0.9 4.3 0.00 0.00 0.00 35 1012.1
20260906005627 96 99 3.5 5.2 0.00 0.00 0.00 35 1011.9
20260906005126 96 114 4.3 5.2 0.00 0.00 0.00 34 1011.8
20260906004626 97 109 0.0 4.3 0.00 0.00 0.00 34 1011.9
20260906004120 97 162 1.7 5.2 0.00 0.00 0.00 34 1011.9
20260906003616 97 190 1.7 3.5 0.00 0.00 0.00 33 1011.8
20260906003112 98 182 0.9 3.5 0.00 0.00 0.00 32 1012.0
20260906002612 98 130 1.7 3.5 0.00 0.00 0.00 32 1012.1
20260906002107 99 172 1.7 3.5 0.00 0.00 0.00 31 1011.6
20260906001603 99 45 3.5 4.3 0.00 0.00 0.00 31 1011.8
20260906001102 99 258 1.7 4.3 0.00 0.00 0.00 31 1011.8
20260906000559 99 144 1.7 3.5 0.00 0.00 0.00 31 1011.8
20260906000053 99 68 3.5 5.2 0.00 0.00 0.00 31 1011.6
20260905235552 99 94 3.5 6.1 0.00 0.00 0.00 31 1011.4
20260905235048 99 94 3.5 6.1 0.00 0.00 0.00 31 1011.4
20260905234543 99 116 5.2 5.2 0.00 0.00 0.00 31 1011.3
20260905234038 99 96 3.5 5.2 0.00 0.00 0.00 30 1011.5
20260905233050 100 98 1.7 5.2 0.00 0.00 0.00 30 1011.5
20260905232546 100 98 1.7 5.2 0.00 0.00 0.00 30 1011.5
20260905232042 100 17 0.9 5.2 0.00 0.00 0.00 30 1011.5
20260905231542 101 184 3.5 3.5 0.00 0.00 0.00 30 1011.2